Location: *
(40.4270°N, 9.4940°E)
Time: 05:32:21
(UTC+02:00)

Daily predictions for brighter satellites

Satellite Brightness Start Highest point End
(mag) Time Altitude Azimuth Time Altitude Azimuth Time Altitude Azimuth
Tiangong 1 3.7 00:02:49 10° WNW 00:03:16 14° WNW 00:03:16 14° WNW
Cosmos 2151 4.2 00:04:19 29° WSW 00:05:34 36° WNW 00:09:33 10° N
Cosmos 841 Rocket 3.9 00:05:00 10° NNW 00:10:04 51° WSW 00:10:57 45° SW
RESURS DK-1 4.3 00:08:33 10° WNW 00:11:30 19° WSW 00:11:36 19° WSW
Cosmos 1763 Rocket 4.4 00:09:01 10° NW 00:13:38 35° W 00:14:30 33° WSW
Cosmos 1805 Rocket 3.4 00:14:23 84° WNW 00:14:23 84° WNW 00:18:43 10° N
Cosmos 304 Rocket 3.6 00:09:52 10° NNW 00:14:41 86° WSW 00:14:58 79° S
ERBS 4.1 00:12:59 10° NW 00:14:50 28° WNW 00:14:50 28° WNW
COSMOS 2406 4.4 00:12:25 10° N 00:17:28 32° ENE 00:19:26 26° E
Cosmos 2263 Rocket 2.8 00:16:51 26° SW 00:19:46 51° WNW 00:25:14 10° NNE
Cosmos 1633 Rocket 3.3 00:21:36 56° ENE 00:21:36 56° ENE 00:25:26 10° NNE
H-2A R/B 3.7 00:25:58 23° WSW 00:26:19 23° W 00:29:47 10° NW
Cosmos 1513 Rocket 4.4 00:23:49 10° N 00:30:05 90° WSW 00:31:23 59° S
Cosmos 2285 Rocket 4.2 00:28:30 10° NNW 00:34:44 61° WSW 00:36:05 50° SSW
SME Rocket 4.0 00:39:30 37° W 00:39:30 37° W 00:43:01 10° NNW
Cosmos 2242 Rocket 3.9 00:35:19 10° N 00:39:39 61° ENE 00:39:39 61° ENE
CZ-4B R/B 4.3 00:41:20 11° ENE 00:41:20 11° ENE 00:42:12 10° NE
Lacrosse 5 3.5 00:37:33 10° WNW 00:40:36 22° WSW 00:40:36 22° WSW
Cosmos 2034 Rocket 3.9 00:36:49 10° N 00:43:13 83° W 00:44:30 59° S
Cosmos 1470 Rocket 4.0 00:50:30 56° NE 00:50:30 56° NE 00:54:17 10° NNE
Cosmos 1933 4.1 00:47:17 10° N 00:50:36 47° NE 00:50:36 47° NE
Cosmos 2084 Rocket 4.4 00:49:58 10° NNW 00:53:12 36° NE 00:53:12 36° NE
Cosmos 1844 Rocket 2.6 00:54:13 66° ESE 00:54:21 67° ESE 00:59:53 10° NNE
CZ-4C R/B 1.9 00:54:18 77° SSE 00:54:31 79° ESE 01:00:24 10° NE
CZ-2C R/B 3.3 00:59:46 63° SSW 01:00:29 71° WSW 01:06:14 10° NNW
Cosmos 1315 Rocket 4.0 01:07:42 37° NE 01:07:42 37° NE 01:10:21 10° NNE
In-Cosmos 22 Rocket 4.0 01:06:26 73° SE 01:06:45 76° E 01:12:19 10° NNE
Cosmos 2346 Rocket 4.3 01:11:36 66° S 01:12:31 84° E 01:18:38 10° N
Cosmos 1400 Rocket 3.5 01:13:35 53° NNW 01:13:35 53° NNW 01:17:01 10° N
ALOS 2 3.2 01:14:22 49° WNW 01:14:22 49° WNW 01:18:04 10° NNW
Cosmos 968 Rocket 3.7 01:13:43 57° W 01:14:19 61° WNW 01:19:33 10° NNE
Cosmos 1634 Rocket 3.9 01:15:31 10° N 01:21:43 78° E 01:22:46 62° SSE
CZ-2C R/B 3.5 01:26:33 10° N 01:31:25 38° WNW 01:32:32 34° W
ATLAS 3B R/B 4.3 01:33:38 21° ESE 01:34:32 21° ESE 01:39:44 10° ENE
Cosmos 292 Rocket 4.1 01:30:04 10° NNW 01:34:12 56° WNW 01:34:12 56° WNW
Cosmos 2142 Rocket 4.3 01:29:46 10° N 01:36:04 90° ESE 01:37:05 65° S
Cosmos 1538 Rocket 4.0 01:31:33 10° NNW 01:36:55 68° WSW 01:36:56 68° WSW
SL-27 R/B 4.4 01:33:53 10° N 01:35:51 27° NNE 01:35:51 27° NNE
Cosmos 1892 3.6 01:41:53 48° N 01:41:53 48° N 01:44:49 10° N
Cosmos 1346 Rocket 3.8 01:37:19 10° N 01:40:20 43° NE 01:40:20 43° NE
Cosmos 2278 Rocket 2.1 01:43:33 66° SE 01:43:51 68° ESE 01:49:28 10° NNE
SL-24 R/B - RUBIN 2 4.0 01:39:54 10° NW 01:44:49 63° W 01:44:49 63° W
Cosmos 923 Rocket 4.1 01:40:22 10° NNW 01:45:33 65° ENE 01:46:07 60° ESE
Cosmos 1844 4.0 01:48:27 50° WSW 01:49:27 58° WNW 01:55:00 10° NNE
Meteor 1-26 Rocket 4.2 01:45:01 10° NNW 01:50:28 60° W 01:50:45 60° WSW
Cosmos 1833 Rocket 4.3 01:46:33 10° N 01:51:27 29° ENE 01:55:12 15° ESE
Cosmos 1689 Rocket 4.4 02:00:46 24° NNW 02:00:46 24° NNW 02:02:11 10° NNW
COSMOS 2406 4.0 01:56:38 10° NW 02:01:29 36° W 02:01:29 36° W
Cosmos 1606 3.7 01:58:34 10° N 02:01:44 43° NE 02:01:44 43° NE
Cosmos 2297 4.2 02:04:10 42° ESE 02:04:42 43° ESE 02:10:03 10° NE
Cosmos 44 Rocket 3.9 02:08:14 45° E 02:08:14 45° E 02:12:24 10° NE
Genesis I 3.9 02:10:36 52° NNE 02:10:36 52° NNE 02:13:41 10° NNE
Cosmos 2221 Rocket 3.7 02:07:12 10° N 02:11:13 68° NW 02:11:13 68° NW
CZ-4B R/B 3.3 02:14:55 26° NW 02:14:55 26° NW 02:16:45 10° NNW
Cosmos 2112 Rocket 4.0 02:10:23 10° NNW 02:15:41 79° ENE 02:16:30 63° SE
Meteor 1-10 Rocket 4.2 02:11:14 10° N 02:17:03 84° E 02:18:14 59° SSE
Nadezhda 4 Rocket 4.1 02:16:22 50° SSE 02:17:58 69° E 02:24:16 10° NNE
Cosmos 2082 Rocket 2.9 02:12:38 10° NNW 02:18:06 49° ENE 02:20:50 27° ESE
Cosmos 1703 Rocket 4.4 02:16:32 10° NNW 02:20:11 39° WNW 02:20:11 39° WNW
H-2A R/B 2.7 02:21:58 10° N 02:26:28 65° WNW 02:26:28 65° WNW
Cosmos 1680 Rocket 3.4 02:23:02 10° NNW 02:28:17 69° WSW 02:28:37 67° SW
Cosmos 1937 Rocket 4.0 02:31:37 42° SE 02:32:22 45° ESE 02:37:15 10° NNE
Cosmos 2279 Rocket 4.3 02:27:32 10° NNW 02:33:30 48° W 02:34:37 44° WSW
Cosmos 1174 4.4 02:36:10 66° SW 02:36:57 88° WNW 02:43:09 10° NNE
SL-16 R/B 4.2 02:33:42 10° ESE 02:38:55 29° ENE 02:44:10 10° N
Meteor 2-6 Rocket 4.2 02:36:50 10° NNW 02:42:21 65° W 02:43:18 55° SW
CZ-4C R/B 4.3 02:39:43 10° W 02:43:51 21° NW 02:48:24 10° NNE
Okean 1-7 4.2 02:40:23 10° NNW 02:43:42 32° WNW 02:43:42 32° WNW
Cosmos 1825 3.0 02:44:54 43° NW 02:44:54 43° NW 02:48:02 10° N
Cosmos 1461 3.9 02:44:17 33° WNW 02:44:31 33° NW 02:48:10 10° NNE
Meteor 1-27 Rocket 3.8 02:39:25 10° N 02:45:25 87° E 02:47:17 46° SSE
SeaSat 1 2.9 02:43:31 27° SE 02:46:01 58° ENE 02:50:53 10° NNW
Cosmos 1898 Rocket 3.4 02:45:58 63° SSW 02:46:51 88° ESE 02:52:08 10° NNE
Cosmos 990 Rocket 4.3 02:46:00 45° SE 02:46:59 52° ESE 02:52:01 10° NNE
Resurs 1-4 Rocket 3.9 02:44:09 10° NE 02:48:20 23° E 02:50:52 16° SE
SL-08 R/B 4.2 02:48:11 27° SE 02:50:24 46° ENE 02:55:00 10° N
Cosmos 1408 3.9 02:53:00 30° NW 02:53:00 30° NW 02:55:37 10° NNW
Cosmos 1862 3.4 02:53:01 67° WNW 02:53:01 67° WNW 02:56:56 10° N
GP-B 3.6 02:51:06 10° NNE 02:55:28 53° E 02:56:25 44° SE
CZ-3B DEB 4.2 02:46:21 10° NW 02:59:37 77° NE 03:11:03 10° SE
ARIANE 5 R/B 4.1 02:57:47 10° NE 03:01:53 25° E 03:04:21 17° SE
Cosmos 1782 4.4 02:59:07 10° NW 03:01:42 24° WNW 03:01:42 24° WNW
CZ-2D R/B 3.4 03:01:33 10° NNE 03:06:24 33° E 03:09:11 21° SE
Cosmos 2195 Rocket 4.5 03:04:02 39° S 03:06:33 79° E 03:12:51 10° N
BREEZE M DEB (TANK) 3.6 03:07:01 32° NNW 03:07:03 32° NNW 03:09:10 10° NE
Cosmos 1733 Rocket 3.2 03:07:05 55° WSW 03:07:27 57° W 03:11:46 10° N
CBERS-1 4.1 03:04:43 10° NNE 03:09:52 72° ESE 03:11:30 43° S
Exosat Rocket 4.0 03:04:38 10° NNW 03:10:16 81° WSW 03:15:01 24° SSE
ADEOS Rocket 3.7 03:03:04 10° NNE 03:10:39 64° E 03:14:34 28° S
Cosmos 1627 Rocket 4.4 03:09:30 39° S 03:11:59 84° E 03:18:09 10° N
Meteor 2-20 Rocket 4.4 03:13:06 40° SSW 03:15:29 81° W 03:21:42 10° N
Timation 2 Rocket 3.8 03:14:14 10° NNW 03:20:20 87° WSW 03:24:52 20° SSE
ATLAS 3B R/B 2.9 03:20:52 33° SW 03:24:35 79° WNW 03:31:50 10° NNE
Helios 1A Rocket 3.8 03:22:21 10° N 03:26:07 35° WNW 03:26:41 33° W
Okean 3 3.3 03:24:00 10° N 03:28:16 86° W 03:29:24 48° S
Cosmos 2278 Rocket 4.1 03:25:22 13° W 03:28:28 19° NW 03:32:28 10° N
IRS-P3 4.2 03:23:52 10° N 03:29:11 66° WNW 03:31:10 38° SW
Cosmos 1092 Rocket 4.5 03:28:04 32° SW 03:30:26 46° WNW 03:36:26 10° N
Sich 1 Rocket 3.6 03:31:07 46° SSW 03:32:27 78° W 03:37:03 10° N
Cosmos 1943 Rocket 4.2 03:28:42 10° SE 03:32:43 20° E 03:36:44 10° NE
NPP 3.7 03:28:19 10° N 03:33:39 65° WNW 03:35:48 36° SW
Cosmos 1833 Rocket 3.2 03:30:13 10° NW 03:35:28 41° WSW 03:36:49 35° SW
Cosmos 44 4.3 03:34:33 25° W 03:36:19 33° NW 03:40:24 10° NNE
Cosmos 2369 Rocket 3.1 03:34:26 22° SSE 03:37:35 41° ESE 03:42:51 10° NE
Cosmos 1674 Rocket 4.2 03:34:03 10° NNW 03:38:09 38° W 03:38:45 36° WSW
Cosmos 1340 4.1 03:38:19 10° NW 03:41:02 24° W 03:41:02 24° W
Cosmos 2026 Rocket 4.0 03:39:21 32° SSW 03:42:08 62° W 03:48:08 10° N
Cosmos 1553 Rocket 4.1 03:38:10 10° N 03:44:35 83° E 03:49:54 16° S
Cosmos 1437 2.9 03:42:48 10° N 03:46:02 69° E 03:47:01 40° SSE
Cosmos 1908 Rocket 4.0 03:47:12 36° SW 03:48:29 48° WNW 03:52:48 10° N
COSMOS 2487 4.3 03:47:50 10° NW 03:49:34 19° WNW 03:49:34 19° WNW
AQUA 4.3 03:48:42 10° N 03:53:15 47° WNW 03:55:12 30° SW
Meteor 2-11 Rocket 4.4 03:50:28 10° N 03:56:38 80° W 04:01:33 17° S
UNKNOWN OBJECT B 3.7 03:54:29 10° NNE 03:58:01 40° E 04:00:18 19° SSE
Okean 2 Rocket 3.0 03:56:40 28° S 03:58:58 86° E 04:03:24 10° N
Cosmos 1378 Rocket 4.1 03:55:18 10° NNW 03:59:22 40° W 04:00:40 32° SW
COSMOS 2455 3.9 03:55:57 15° S 04:00:25 37° ESE 04:05:54 10° NE
Cosmos 2082 Rocket 3.4 03:57:31 10° NW 04:01:48 23° W 04:02:37 22° WSW
CZ-2D R/B 4.4 04:00:55 10° NNE 04:05:12 47° E 04:08:43 15° S
Meteor 1-25 Rocket 4.2 04:04:35 24° SSW 04:08:03 72° W 04:13:42 10° N
BREEZE-M DEB (TANK) 2.8 04:01:59 10° WNW 04:08:08 86° SSW 04:11:01 10° ESE
TIMED 4.5 04:07:11 29° SSW 04:09:23 75° WNW 04:13:46 10° NNE
Cosmos 1048 Rocket 4.2 04:04:20 10° NNW 04:09:44 75° ENE 04:15:06 10° SSE
Cosmos 1782 Rocket 4.0 04:09:22 27° SW 04:11:23 47° W 04:15:44 10° N
Cosmos 405 Rocket 2.9 04:09:18 10° N 04:13:17 75° E 04:16:58 11° SSE
ADEOS 3.6 04:08:17 10° N 04:13:31 72° WNW 04:17:00 21° SSW
Cosmos 1655 Rocket 4.5 04:10:18 23° SW 04:13:59 45° WNW 04:19:58 10° N
MOS 1 Rocket 3.6 04:10:50 10° NNE 04:16:14 79° ESE 04:20:27 16° S
USA 238 DEB 4.2 04:12:59 18° WSW 04:18:00 50° NW 04:24:49 10° NNE
USA 238 4.2 04:13:05 18° WSW 04:18:06 51° NW 04:24:55 10° NNE
Cosmos 1812 3.3 04:14:35 10° NNW 04:18:13 40° W 04:19:51 26° SW
SL-16 R/B 2.9 04:17:35 16° SSW 04:22:16 46° W 04:28:15 10° NNW
SeaSat 1 3.9 04:23:17 18° WSW 04:23:49 18° WSW 04:27:10 10° WNW
GRACE-1 4.0 04:22:25 20° SSE 04:24:06 67° E 04:26:47 10° N
GRACE-2 4.0 04:22:50 20° SSE 04:24:31 67° E 04:27:13 10° N
Resurs 1-4 Rocket 2.7 04:23:17 10° N 04:28:19 44° WNW 04:31:57 18° SW
Okean O Rocket 3.8 04:27:45 10° NE 04:31:13 23° E 04:34:41 10° SSE
BREEZE-M R/B 3.2 04:25:22 10° WNW 04:31:20 71° NNE 04:34:28 10° ESE
Cosmos 2344 3.7 04:25:57 17° SW 04:32:06 83° NW 04:40:39 10° NE
Gbstr 26 Del rocket 2.9 04:33:16 20° SSW 04:35:39 57° SE 04:39:22 10° ENE
Cosmos 1536 3.9 04:32:41 10° SSE 04:36:26 43° E 04:40:14 10° NNE
ASTRO E2 4.2 04:36:09 17° SSW 04:37:34 20° S 04:40:34 10° SE
Cosmos 1125 Rocket 4.0 04:34:58 17° SW 04:38:47 48° WNW 04:43:55 10° N
Cosmos 1602 3.7 04:36:18 14° SSW 04:39:34 76° W 04:43:32 10° N
ARIANE 5 R/B 3.3 04:36:31 10° N 04:41:03 36° WNW 04:44:41 15° SW
Cosmos 1975 Rocket 4.2 04:38:05 10° NNW 04:41:39 25° W 04:44:05 16° SW
Meteor 2-4 Rocket 4.2 04:39:02 10° N 04:44:38 61° ENE 04:50:02 10° SSE
Cosmos 2266 Rocket 4.2 04:39:53 12° SSW 04:45:42 59° W 04:52:01 10° N
Cosmos 2315 Rocket 4.1 04:39:29 10° N 04:45:49 89° ENE 04:52:04 10° S
CZ-2D R/B 3.2 04:41:40 10° N 04:46:23 32° WNW 04:50:31 13° SW
Cosmos 2151 Rocket 3.8 04:43:17 13° SSW 04:47:12 58° W 04:51:41 10° N
Cosmos 1633 3.4 04:46:16 16° SW 04:48:41 35° WNW 04:52:03 10° N
USA 267 3.3 04:43:45 10° NE 04:50:20 83° NW 04:56:36 11° SW
CZ-3B DEB 4.2 04:41:11 10° NW 04:53:09 45° WSW 05:02:46 10° S
Meteor 1-13 Rocket 4.2 04:49:00 10° NNW 04:54:31 74° W 05:00:04 10° S
NOSS 3-3 (A) 4.5 04:47:30 10° NW 04:55:03 77° WSW 05:03:05 10° SSE
NOSS 3-2 (C) 3.7 04:52:14 13° SW 04:57:42 64° NW 05:04:16 10° NNE
NOSS 3-2 (A) 4.0 04:52:39 12° WSW 04:58:06 50° NW 05:04:32 10° NNE
Meteor 1-11 Rocket 3.8 04:52:58 10° SSW 04:58:40 78° W 05:04:32 10° N
H-2A R/B 3.8 04:37:33 10° WSW 05:01:36 46° S 05:06:28 10° ESE
Cosmos 1536 Rocket 3.9 05:00:09 10° NNW 05:04:28 48° W 05:08:45 10° SSW
Cosmos 1025 Rocket 4.2 05:00:22 10° N 05:04:38 47° E 05:08:52 10° SSE
USA 161 1.7 05:05:51 10° SSW 05:08:02 34° W 05:10:24 10° NNW
PSLV R/B 3.2 05:09:25 10° WSW 05:12:40 69° SSE 05:15:59 10° E
CENTAUR R/B 3.0 05:07:26 10° SSW 05:13:16 60° ESE 05:19:52 10° NE
Landsat 4 3.9 05:10:27 10° SSE 05:14:15 80° ENE 05:18:04 10° N
Cosmos 1943 Rocket 2.5 05:10:28 10° SW 05:15:59 54° WNW 05:21:31 10° NNE
OE (NEXTSAT) 4.4 05:12:44 10° WSW 05:16:16 82° SSE 05:19:51 10° ENE
ATLAS 3B R/B 4.5 05:10:54 10° W 05:16:24 22° NW 05:21:45 10° NNE
Abrixas 3.2 05:15:31 10° NW 05:18:12 50° NNE 05:20:52 10° ESE
PSLV R/B 3.8 05:14:58 10° NNE 05:19:13 71° ESE 05:23:28 10° S
Cosmos 1441 Rocket 4.3 05:16:05 10° NNW 05:19:32 28° W 05:22:57 10° SSW
Cosmos 2369 Rocket 3.4 05:16:56 10° WSW 05:21:43 28° NW 05:26:34 10° N
